User: anonymous   Login
Location: Wildcat Hills Observatory
(41.6350°N, 103.6812°W)
Time: 04:08:32
(UTC-07:00)
Language:

Cosmos 1634 Rocket - Orbit

View from above orbital plane
View from above orbital plane
View from above satellite
View from above satellite

Ground track
Ground track

The orbit data is extracted from the following two-line orbital elements,

1 15598U 85022B   15061.02432888  .00000028  00000-0  13580-4 0  9994
2 15598 082.9400 010.0784 0020984 295.2863 104.0225 13.76504631505157
Epoch (UTC): 02 March 2015 00:35:02
Eccentricity: 0.0020984
inclination: 82.9400°
perigee height: 961 km
apogee height: 992 km
right ascension of ascending node: 10.0784°
argument of perigee: 295.2863°
revolutions per day: 13.76504631
mean anomaly at epoch: 104.0225°
orbit number at epoch: 50515

The dashed part of the orbit path shows where the satellite is in the earth's shadow,  

DLR